Time,TemperatureF,DewpointF,PressureIn,WindDirection,WindDirectionDegrees,WindSpeedMPH,WindSpeedGustMPH,Humidity,HourlyPrecipIn,Conditions,Clouds,dailyrainin,SolarRadiationWatts/m^2,SoftwareType,DateUTC
2013-01-15 00:01:00,13.1,9.4,30.48,North,355,0.0,0.0,85,0.00,OVC,,0.02,0.0,WeatherDisplay:10.37,2013-01-15 06:01:00,
2013-01-15 00:06:00,13.0,9.3,30.48,North,355,0.0,0.0,85,0.00,RA,,0.02,0.0,WeatherDisplay:10.37,2013-01-15 06:06:00,
2013-01-15 00:11:00,13.0,9.3,30.48,North,355,0.0,0.0,85,0.00,RA,,0.02,0.0,WeatherDisplay:10.37,2013-01-15 06:11:00,
2013-01-15 00:16:00,12.9,9.2,30.48,North,355,0.0,0.0,85,0.00,CLR,,0.02,0.0,WeatherDisplay:10.37,2013-01-15 06:16:00,
2013-01-15 00:21:00,12.8,9.1,30.48,North,355,0.0,0.0,85,0.00,CLR,,0.02,0.0,WeatherDisplay:10.37,2013-01-15 06:21:00,
2013-01-15 00:26:00,12.6,8.9,30.48,North,355,0.0,0.0,85,0.00,CLR,,0.02,0.0,WeatherDisplay:10.37,2013-01-15 06:26:00,
2013-01-15 00:31:00,12.5,8.8,30.48,North,355,0.0,0.0,85,0.00,CLR,,0.02,0.0,WeatherDisplay:10.37,2013-01-15 06:31:00,
2013-01-15 00:36:00,12.4,8.7,30.48,North,355,0.0,0.0,85,0.00,CLR,,0.02,0.0,WeatherDisplay:10.37,2013-01-15 06:36:00,
2013-01-15 00:41:00,12.3,8.7,30.48,North,355,0.0,0.0,85,0.00,CLR,,0.02,0.0,WeatherDisplay:10.37,2013-01-15 06:41:00,
2013-01-15 00:46:00,12.2,8.6,30.48,North,355,0.0,0.0,85,0.00,CLR,,0.02,0.0,WeatherDisplay:10.37,2013-01-15 06:46:00,
2013-01-15 00:51:00,12.1,8.5,30.48,North,355,0.0,0.0,85,0.00,CLR,,0.02,0.0,WeatherDisplay:10.37,2013-01-15 06:51:00,
2013-01-15 00:56:00,12.1,8.5,30.48,North,355,0.0,0.0,85,0.00,CLR,,0.02,0.0,WeatherDisplay:10.37,2013-01-15 06:56:00,
2013-01-15 01:01:00,11.9,8.3,30.48,North,355,0.0,0.0,85,0.00,CLR,,0.02,0.0,WeatherDisplay:10.37,2013-01-15 07:01:00,
2013-01-15 01:07:00,11.9,8.3,30.48,North,355,0.0,0.0,85,0.00,CLR,,0.02,0.0,WeatherDisplay:10.37,2013-01-15 07:07:00,
2013-01-15 01:12:00,11.9,8.3,30.48,North,355,0.0,0.0,85,0.00,CLR,,0.02,0.0,WeatherDisplay:10.37,2013-01-15 07:12:00,
2013-01-15 01:17:00,11.9,8.3,30.48,North,355,0.0,0.0,85,0.00,CLR,,0.02,0.0,WeatherDisplay:10.37,2013-01-15 07:17:00,
2013-01-15 01:22:00,11.8,8.2,30.48,North,355,0.0,0.0,85,0.00,CLR,,0.02,0.0,WeatherDisplay:10.37,2013-01-15 07:22:00,
2013-01-15 01:27:00,11.8,8.2,30.48,North,355,0.0,0.0,85,0.00,CLR,,0.02,0.0,WeatherDisplay:10.37,2013-01-15 07:27:00,
2013-01-15 01:32:00,11.7,8.1,30.48,North,355,0.0,0.0,85,0.00,CLR,,0.02,0.0,WeatherDisplay:10.37,2013-01-15 07:32:00,
2013-01-15 01:37:00,11.7,8.3,30.48,North,355,0.0,0.0,86,0.00,CLR,,0.02,0.0,WeatherDisplay:10.37,2013-01-15 07:37:00,
2013-01-15 01:42:00,11.7,8.3,30.48,North,355,0.0,0.0,86,0.00,CLR,,0.02,0.0,WeatherDisplay:10.37,2013-01-15 07:42:00,
2013-01-15 01:47:00,11.7,8.3,30.48,North,355,0.0,0.0,86,0.00,CLR,,0.02,0.0,WeatherDisplay:10.37,2013-01-15 07:47:00,
2013-01-15 01:52:00,11.7,8.3,30.48,North,355,0.0,0.0,86,0.00,CLR,,0.02,0.0,WeatherDisplay:10.37,2013-01-15 07:52:00,
2013-01-15 01:57:00,11.8,8.4,30.48,North,355,0.0,0.0,86,0.00,CLR,,0.02,0.0,WeatherDisplay:10.37,2013-01-15 07:57:00,
2013-01-15 02:02:00,11.8,8.4,30.48,North,355,0.0,0.0,86,0.00,CLR,,0.02,0.0,WeatherDisplay:10.37,2013-01-15 08:02:00,
2013-01-15 02:07:00,11.9,8.5,30.48,North,355,0.0,0.0,86,0.00,CLR,,0.02,0.0,WeatherDisplay:10.37,2013-01-15 08:07:00,
2013-01-15 02:12:00,11.9,8.8,30.49,North,355,0.0,0.0,87,0.00,CLR,,0.02,0.0,WeatherDisplay:10.37,2013-01-15 08:12:00,
2013-01-15 02:17:00,12.0,8.9,30.48,North,355,0.0,0.0,87,0.00,CLR,,0.02,0.0,WeatherDisplay:10.37,2013-01-15 08:17:00,
2013-01-15 02:22:00,12.0,8.9,30.48,North,355,0.0,0.0,87,0.00,CLR,,0.02,0.0,WeatherDisplay:10.37,2013-01-15 08:22:00,
2013-01-15 02:27:00,12.0,8.9,30.48,North,355,0.0,0.0,87,0.00,CLR,,0.02,0.0,WeatherDisplay:10.37,2013-01-15 08:27:00,
2013-01-15 02:32:00,12.0,8.9,30.48,North,355,0.0,0.0,87,0.00,CLR,,0.02,0.0,WeatherDisplay:10.37,2013-01-15 08:32:00,
2013-01-15 02:37:00,11.9,8.8,30.48,North,355,0.0,0.0,87,0.00,CLR,,0.02,0.0,WeatherDisplay:10.37,2013-01-15 08:37:00,
2013-01-15 02:42:00,11.9,8.8,30.48,North,355,0.0,0.0,87,0.00,CLR,,0.02,0.0,WeatherDisplay:10.37,2013-01-15 08:42:00,
2013-01-15 02:47:00,11.8,8.7,30.48,North,355,0.0,0.0,87,0.00,CLR,,0.02,0.0,WeatherDisplay:10.37,2013-01-15 08:47:00,
2013-01-15 02:52:00,11.8,8.7,30.48,North,355,0.0,0.0,87,0.00,CLR,,0.02,0.0,WeatherDisplay:10.37,2013-01-15 08:52:00,
2013-01-15 02:57:00,11.7,8.6,30.48,North,355,0.0,0.0,87,0.00,CLR,,0.02,0.0,WeatherDisplay:10.37,2013-01-15 08:57:00,
2013-01-15 03:02:00,11.7,8.6,30.48,North,355,0.0,0.0,87,0.00,CLR,,0.02,0.0,WeatherDisplay:10.37,2013-01-15 09:02:00,
2013-01-15 03:07:00,11.6,8.5,30.47,North,355,0.0,0.0,87,0.00,CLR,,0.02,0.0,WeatherDisplay:10.37,2013-01-15 09:07:00,
2013-01-15 03:12:00,11.5,8.4,30.47,North,355,0.0,0.0,87,0.00,CLR,,0.02,0.0,WeatherDisplay:10.37,2013-01-15 09:12:00,
2013-01-15 03:17:00,11.4,8.3,30.47,North,355,0.0,0.0,87,0.00,CLR,,0.02,0.0,WeatherDisplay:10.37,2013-01-15 09:17:00,
2013-01-15 03:22:00,11.4,8.3,30.47,North,355,0.0,0.0,87,0.00,CLR,,0.02,0.0,WeatherDisplay:10.37,2013-01-15 09:22:00,
2013-01-15 03:27:00,11.3,8.2,30.47,North,355,0.0,0.0,87,0.00,CLR,,0.02,0.0,WeatherDisplay:10.37,2013-01-15 09:27:00,
2013-01-15 03:32:00,11.3,8.2,30.47,North,355,0.0,0.0,87,0.00,CLR,,0.02,0.0,WeatherDisplay:10.37,2013-01-15 09:32:00,
2013-01-15 03:37:00,11.2,8.1,30.47,North,355,0.0,0.0,87,0.00,CLR,,0.02,0.0,WeatherDisplay:10.37,2013-01-15 09:37:00,
2013-01-15 03:42:00,11.1,8.0,30.47,North,355,0.0,0.0,87,0.00,CLR,,0.02,0.0,WeatherDisplay:10.37,2013-01-15 09:42:00,
2013-01-15 03:47:00,11.0,7.9,30.46,North,355,0.0,0.0,87,0.00,CLR,,0.02,0.0,WeatherDisplay:10.37,2013-01-15 09:47:00,
2013-01-15 03:52:00,11.0,7.9,30.46,North,355,0.0,0.0,87,0.00,CLR,,0.02,0.0,WeatherDisplay:10.37,2013-01-15 09:52:00,
2013-01-15 03:57:00,10.9,7.8,30.46,North,355,0.0,0.0,87,0.00,CLR,,0.02,0.0,WeatherDisplay:10.37,2013-01-15 09:57:00,
2013-01-15 04:02:00,10.8,7.7,30.46,North,355,0.0,0.0,87,0.00,CLR,,0.02,0.0,WeatherDisplay:10.37,2013-01-15 10:02:00,
2013-01-15 04:07:00,10.7,7.6,30.46,North,355,0.0,0.0,87,0.00,CLR,,0.02,0.0,WeatherDisplay:10.37,2013-01-15 10:07:00,
2013-01-15 04:12:00,10.7,7.6,30.46,North,355,0.0,0.0,87,0.00,CLR,,0.02,0.0,WeatherDisplay:10.37,2013-01-15 10:12:00,
2013-01-15 04:17:00,10.6,7.5,30.46,North,355,0.0,0.0,87,0.00,CLR,,0.02,0.0,WeatherDisplay:10.37,2013-01-15 10:17:00,
2013-01-15 04:22:00,10.5,7.4,30.46,North,355,0.0,0.0,87,0.00,CLR,,0.02,0.0,WeatherDisplay:10.37,2013-01-15 10:22:00,
2013-01-15 04:27:00,10.4,7.3,30.46,North,355,0.0,0.0,87,0.00,CLR,,0.02,0.0,WeatherDisplay:10.37,2013-01-15 10:27:00,
2013-01-15 04:32:00,10.3,7.2,30.45,North,355,0.0,0.0,87,0.00,CLR,,0.02,0.0,WeatherDisplay:10.37,2013-01-15 10:32:00,
2013-01-15 04:37:00,10.2,7.1,30.45,North,355,0.0,0.0,87,0.00,CLR,,0.02,0.0,WeatherDisplay:10.37,2013-01-15 10:37:00,
2013-01-15 04:42:00,10.1,7.0,30.45,North,355,0.0,0.0,87,0.00,CLR,,0.02,0.0,WeatherDisplay:10.37,2013-01-15 10:42:00,
2013-01-15 04:47:00,10.0,6.9,30.45,North,355,0.0,0.0,87,0.00,CLR,,0.02,0.0,WeatherDisplay:10.37,2013-01-15 10:47:00,
2013-01-15 04:52:00,9.9,6.8,30.44,North,355,0.0,0.0,87,0.00,CLR,,0.02,0.0,WeatherDisplay:10.37,2013-01-15 10:52:00,
2013-01-15 04:57:00,9.9,6.8,30.44,North,355,0.0,0.0,87,0.00,CLR,,0.02,0.0,WeatherDisplay:10.37,2013-01-15 10:57:00,
2013-01-15 05:02:00,9.9,6.8,30.45,North,355,0.0,0.0,87,0.00,CLR,,0.02,0.0,WeatherDisplay:10.37,2013-01-15 11:02:00,
2013-01-15 05:07:00,9.8,6.7,30.45,North,355,0.0,0.0,87,0.00,CLR,,0.02,0.0,WeatherDisplay:10.37,2013-01-15 11:07:00,
2013-01-15 05:12:00,9.7,6.6,30.45,North,355,0.0,0.0,87,0.00,CLR,,0.02,0.0,WeatherDisplay:10.37,2013-01-15 11:12:00,
2013-01-15 05:17:00,9.6,6.5,30.45,North,355,0.0,0.0,87,0.00,CLR,,0.02,0.0,WeatherDisplay:10.37,2013-01-15 11:17:00,
2013-01-15 05:22:00,9.5,6.4,30.45,North,355,0.0,0.0,87,0.00,CLR,,0.02,0.0,WeatherDisplay:10.37,2013-01-15 11:22:00,
2013-01-15 05:27:00,9.4,6.3,30.45,North,355,0.0,0.0,87,0.00,CLR,,0.02,0.0,WeatherDisplay:10.37,2013-01-15 11:27:00,
2013-01-15 05:32:00,9.3,6.2,30.45,North,355,0.0,0.0,87,0.00,CLR,,0.02,0.0,WeatherDisplay:10.37,2013-01-15 11:32:00,
2013-01-15 05:37:00,9.3,6.2,30.45,North,355,0.0,0.0,87,0.00,CLR,,0.02,0.0,WeatherDisplay:10.37,2013-01-15 11:37:00,
2013-01-15 05:42:00,9.2,6.1,30.45,North,355,0.0,0.0,87,0.00,CLR,,0.02,0.0,WeatherDisplay:10.37,2013-01-15 11:42:00,
2013-01-15 05:47:00,9.1,6.0,30.44,North,355,0.0,0.0,87,0.00,CLR,,0.02,0.0,WeatherDisplay:10.37,2013-01-15 11:47:00,
2013-01-15 05:52:00,9.1,6.0,30.44,North,355,0.0,0.0,87,0.00,CLR,,0.02,0.0,WeatherDisplay:10.37,2013-01-15 11:52:00,
2013-01-15 05:58:00,9.0,5.9,30.44,North,355,0.0,0.0,87,0.00,CLR,,0.02,0.0,WeatherDisplay:10.37,2013-01-15 11:58:00,
2013-01-15 06:03:00,8.9,6.1,30.44,North,355,0.0,0.0,88,0.00,CLR,,0.02,0.0,WeatherDisplay:10.37,2013-01-15 12:03:00,
2013-01-15 06:08:00,8.9,6.1,30.44,North,355,0.0,0.0,88,0.00,CLR,,0.02,0.0,WeatherDisplay:10.37,2013-01-15 12:08:00,
2013-01-15 06:13:00,8.9,6.1,30.44,North,355,0.0,0.0,88,0.00,CLR,,0.02,0.0,WeatherDisplay:10.37,2013-01-15 12:13:00,
2013-01-15 06:18:00,8.8,6.0,30.45,North,355,0.0,0.0,88,0.00,CLR,,0.02,0.0,WeatherDisplay:10.37,2013-01-15 12:18:00,
2013-01-15 06:23:00,8.7,5.9,30.45,North,355,0.0,0.0,88,0.00,CLR,,0.02,0.0,WeatherDisplay:10.37,2013-01-15 12:23:00,
2013-01-15 06:28:00,8.7,5.6,30.45,North,355,0.0,0.0,87,0.00,CLR,,0.02,0.0,WeatherDisplay:10.37,2013-01-15 12:28:00,
2013-01-15 06:33:00,8.6,5.5,30.45,North,355,0.0,0.0,87,0.00,CLR,,0.02,0.0,WeatherDisplay:10.37,2013-01-15 12:33:00,
2013-01-15 06:38:00,8.6,5.5,30.45,North,355,0.0,0.0,87,0.00,CLR,,0.02,0.0,WeatherDisplay:10.37,2013-01-15 12:38:00,
2013-01-15 06:43:00,8.6,5.8,30.45,North,355,0.0,0.0,88,0.00,CLR,,0.02,0.0,WeatherDisplay:10.37,2013-01-15 12:43:00,
2013-01-15 06:48:00,8.5,5.7,30.45,North,355,0.0,0.0,88,0.00,CLR,,0.02,0.0,WeatherDisplay:10.37,2013-01-15 12:48:00,
2013-01-15 06:53:00,8.5,5.7,30.45,North,355,0.0,0.0,88,0.00,CLR,,0.02,0.0,WeatherDisplay:10.37,2013-01-15 12:53:00,
2013-01-15 06:58:00,8.5,5.7,30.45,North,355,0.0,0.0,88,0.00,CLR,,0.02,0.0,WeatherDisplay:10.37,2013-01-15 12:58:00,
2013-01-15 07:03:00,8.5,5.7,30.45,North,355,0.0,0.0,88,0.00,OVC,,0.02,0.0,WeatherDisplay:10.37,2013-01-15 13:03:00,
2013-01-15 07:08:00,8.4,5.6,30.45,North,355,0.0,0.0,88,0.00,OVC,,0.02,0.0,WeatherDisplay:10.37,2013-01-15 13:08:00,
2013-01-15 07:13:00,8.4,5.6,30.45,North,355,0.0,0.0,88,0.00,OVC,,0.02,0.0,WeatherDisplay:10.37,2013-01-15 13:13:00,
2013-01-15 07:18:00,8.3,5.5,30.45,North,355,0.0,0.0,88,0.00,OVC,,0.02,0.0,WeatherDisplay:10.37,2013-01-15 13:18:00,
2013-01-15 07:23:00,8.3,5.5,30.44,North,355,0.0,0.0,88,0.00,OVC,,0.02,0.0,WeatherDisplay:10.37,2013-01-15 13:23:00,
2013-01-15 07:28:00,8.3,5.5,30.45,North,355,0.0,0.0,88,0.00,OVC,,0.02,5.0,WeatherDisplay:10.37,2013-01-15 13:28:00,
2013-01-15 07:33:00,8.3,5.5,30.45,North,355,0.0,0.0,88,0.00,OVC,,0.02,7.0,WeatherDisplay:10.37,2013-01-15 13:33:00,
2013-01-15 07:38:00,8.2,5.4,30.45,North,355,0.0,0.0,88,0.00,OVC,,0.02,9.0,WeatherDisplay:10.37,2013-01-15 13:38:00,
2013-01-15 07:43:00,8.3,5.5,30.45,North,355,0.0,0.0,88,0.00,OVC,,0.02,12.0,WeatherDisplay:10.37,2013-01-15 13:43:00,
2013-01-15 07:48:00,8.3,5.5,30.45,North,355,0.0,0.0,88,0.00,OVC,,0.02,16.0,WeatherDisplay:10.37,2013-01-15 13:48:00,
2013-01-15 07:53:00,8.3,5.5,30.45,North,355,0.0,0.0,88,0.00,OVC,,0.02,16.0,WeatherDisplay:10.37,2013-01-15 13:53:00,
2013-01-15 07:58:00,8.4,5.6,30.46,North,355,0.0,0.0,88,0.00,OVC,,0.02,21.0,WeatherDisplay:10.37,2013-01-15 13:58:00,
2013-01-15 08:03:00,8.5,5.7,30.46,North,355,0.0,0.0,88,0.00,OVC,,0.02,25.0,WeatherDisplay:10.37,2013-01-15 14:03:00,
2013-01-15 08:08:00,8.6,5.8,30.47,North,355,0.0,0.0,88,0.00,OVC,,0.02,26.0,WeatherDisplay:10.37,2013-01-15 14:08:00,
2013-01-15 08:13:00,8.8,6.2,30.47,North,355,0.0,0.0,89,0.00,OVC,,0.02,25.0,WeatherDisplay:10.37,2013-01-15 14:13:00,
2013-01-15 08:18:00,9.0,6.4,30.47,North,355,0.0,0.0,89,0.00,OVC,,0.02,33.0,WeatherDisplay:10.37,2013-01-15 14:18:00,
2013-01-15 08:23:00,9.2,6.6,30.47,North,355,0.0,0.0,89,0.00,OVC,,0.02,37.0,WeatherDisplay:10.37,2013-01-15 14:23:00,
2013-01-15 08:28:00,9.5,6.9,30.47,North,355,0.0,0.0,89,0.00,OVC,,0.02,35.0,WeatherDisplay:10.37,2013-01-15 14:28:00,
2013-01-15 08:33:00,9.8,7.2,30.47,North,355,0.0,0.0,89,0.00,OVC,,0.02,40.0,WeatherDisplay:10.37,2013-01-15 14:33:00,
2013-01-15 08:38:00,9.9,7.3,30.47,North,355,0.0,0.0,89,0.00,OVC,,0.02,51.0,WeatherDisplay:10.37,2013-01-15 14:38:00,
2013-01-15 08:43:00,10.5,7.9,30.48,North,355,0.0,0.0,89,0.00,OVC,,0.02,90.0,WeatherDisplay:10.37,2013-01-15 14:43:00,
2013-01-15 08:48:00,11.1,8.7,30.48,North,355,0.0,0.0,90,0.00,BKN,,0.02,102.0,WeatherDisplay:10.37,2013-01-15 14:48:00,
2013-01-15 08:53:00,11.3,8.9,30.48,North,355,0.0,0.0,90,0.00,OVC,,0.02,83.0,WeatherDisplay:10.37,2013-01-15 14:53:00,
2013-01-15 08:58:00,11.8,9.4,30.48,North,355,0.0,0.0,90,0.00,BKN,,0.02,135.0,WeatherDisplay:10.37,2013-01-15 14:58:00,
2013-01-15 09:03:00,12.4,10.0,30.48,North,355,0.0,0.0,90,0.00,BKN,,0.02,125.0,WeatherDisplay:10.37,2013-01-15 15:03:00,
2013-01-15 09:08:00,13.1,11.0,30.49,North,355,0.0,0.0,91,0.00,BKN,,0.02,127.0,WeatherDisplay:10.37,2013-01-15 15:08:00,
2013-01-15 09:13:00,13.9,11.8,30.48,North,355,0.0,0.0,91,0.00,BKN,,0.02,135.0,WeatherDisplay:10.37,2013-01-15 15:13:00,
2013-01-15 09:18:00,14.5,12.4,30.48,North,355,0.0,0.0,91,0.00,OVC,,0.02,88.0,WeatherDisplay:10.37,2013-01-15 15:18:00,
2013-01-15 09:23:00,15.0,12.8,30.48,North,355,0.0,0.0,91,0.00,OVC,,0.02,83.0,WeatherDisplay:10.37,2013-01-15 15:23:00,
2013-01-15 09:28:00,15.6,13.4,30.47,North,355,0.0,0.0,91,0.00,OVC,,0.02,109.0,WeatherDisplay:10.37,2013-01-15 15:28:00,
2013-01-15 09:33:00,15.9,13.7,30.47,North,355,0.0,0.0,91,0.00,BKN,,0.02,160.0,WeatherDisplay:10.37,2013-01-15 15:33:00,
2013-01-15 09:38:00,16.2,14.0,30.47,North,355,0.0,0.0,91,0.00,OVC,,0.02,113.0,WeatherDisplay:10.37,2013-01-15 15:38:00,
2013-01-15 09:43:00,16.6,14.4,30.47,North,355,0.0,0.0,91,0.00,SCT,,0.02,267.0,WeatherDisplay:10.37,2013-01-15 15:43:00,
2013-01-15 09:48:00,17.6,15.7,30.46,North,355,0.0,0.0,92,0.00,SCT,,0.02,278.0,WeatherDisplay:10.37,2013-01-15 15:48:00,
2013-01-15 09:53:00,18.5,16.3,30.46,North,355,0.0,0.0,91,0.00,SCT,,0.02,316.0,WeatherDisplay:10.37,2013-01-15 15:53:00,
2013-01-15 09:58:00,19.3,17.1,30.46,North,355,0.0,0.0,91,0.00,BKN,,0.02,174.0,WeatherDisplay:10.37,2013-01-15 15:58:00,
2013-01-15 10:03:00,19.7,17.5,30.45,North,355,0.0,0.0,91,0.00,BKN,,0.02,214.0,WeatherDisplay:10.37,2013-01-15 16:03:00,
2013-01-15 10:08:00,20.2,17.7,30.44,North,355,0.0,0.0,90,0.00,BKN,,0.02,209.0,WeatherDisplay:10.37,2013-01-15 16:08:00,
2013-01-15 10:13:00,20.6,18.1,30.44,North,355,0.0,0.0,90,0.00,SCT,,0.02,265.0,WeatherDisplay:10.37,2013-01-15 16:13:00,
2013-01-15 10:18:00,20.9,18.4,30.44,North,355,0.0,0.0,90,0.00,BKN,,0.02,221.0,WeatherDisplay:10.37,2013-01-15 16:18:00,
2013-01-15 10:23:00,21.2,18.5,30.44,North,355,0.0,0.0,89,0.00,SCT,,0.02,281.0,WeatherDisplay:10.37,2013-01-15 16:23:00,
2013-01-15 10:28:00,21.6,18.6,30.43,North,355,0.0,0.0,88,0.00,SCT,,0.02,281.0,WeatherDisplay:10.37,2013-01-15 16:28:00,
2013-01-15 10:33:00,22.0,18.7,30.42,North,355,0.0,0.0,87,0.00,SCT,,0.02,320.0,WeatherDisplay:10.37,2013-01-15 16:33:00,
2013-01-15 10:38:00,22.6,19.0,30.42,North,355,0.0,0.0,86,0.00,SCT,,0.02,306.0,WeatherDisplay:10.37,2013-01-15 16:38:00,
2013-01-15 10:43:00,23.3,19.2,30.42,North,355,0.0,0.0,84,0.00,SCT,,0.02,329.0,WeatherDisplay:10.37,2013-01-15 16:43:00,
2013-01-15 10:48:00,24.0,19.6,30.42,North,355,0.0,0.0,83,0.00,FEW,,0.02,394.0,WeatherDisplay:10.37,2013-01-15 16:48:00,
2013-01-15 10:53:00,24.7,19.7,30.43,North,355,3.5,3.5,81,0.00,BKN,,0.02,193.0,WeatherDisplay:10.37,2013-01-15 16:53:00,
2013-01-15 10:58:00,25.1,19.5,30.43,North,355,0.0,0.0,79,0.00,BKN,,0.02,188.0,WeatherDisplay:10.37,2013-01-15 16:58:00,
2013-01-15 11:03:00,25.5,19.6,30.44,North,350,2.3,0.0,78,0.00,SCT,,0.02,359.0,WeatherDisplay:10.37,2013-01-15 17:03:00,
2013-01-15 11:08:00,26.0,19.5,30.43,East,86,0.0,0.3,76,0.00,SCT,,0.02,445.0,WeatherDisplay:10.37,2013-01-15 17:08:00,
2013-01-15 11:13:00,26.5,19.6,30.43,East,87,2.3,3.1,75,0.00,BKN,,0.02,271.0,WeatherDisplay:10.37,2013-01-15 17:13:00,
2013-01-15 11:19:00,26.8,19.0,30.43,SE,140,4.0,4.0,72,0.00,SCT,,0.02,443.0,WeatherDisplay:10.37,2013-01-15 17:19:00,
2013-01-15 11:23:00,27.1,18.6,30.43,SE,142,4.0,4.0,70,0.00,FEW,,0.02,438.0,WeatherDisplay:10.37,2013-01-15 17:23:00,
2013-01-15 11:29:00,27.3,18.5,30.42,SSE,165,3.5,3.5,69,0.00,BKN,,0.02,264.0,WeatherDisplay:10.37,2013-01-15 17:29:00,
2013-01-15 11:34:00,27.6,18.8,30.42,SSE,165,3.5,3.5,69,0.00,FEW,,0.02,555.0,WeatherDisplay:10.37,2013-01-15 17:34:00,
2013-01-15 11:39:00,27.9,19.0,30.41,SSE,165,4.6,4.6,69,0.00,FEW,,0.02,510.0,WeatherDisplay:10.37,2013-01-15 17:39:00,
2013-01-15 11:44:00,28.2,19.0,30.40,SSE,164,4.6,4.6,68,0.00,FEW,,0.02,510.0,WeatherDisplay:10.37,2013-01-15 17:44:00,
2013-01-15 11:49:00,28.6,18.7,30.40,SE,143,3.5,3.5,66,0.00,SCT,,0.02,429.0,WeatherDisplay:10.37,2013-01-15 17:49:00,
2013-01-15 11:54:00,28.9,18.2,30.40,SSE,150,4.6,4.6,64,0.00,FEW,,0.02,504.0,WeatherDisplay:10.37,2013-01-15 17:54:00,
2013-01-15 11:59:00,29.2,18.5,30.39,SSE,150,0.0,0.0,64,0.00,FEW,,0.02,501.0,WeatherDisplay:10.37,2013-01-15 17:59:00,
2013-01-15 12:04:00,29.8,19.1,30.38,SSE,150,3.5,3.5,64,0.00,SCT,,0.02,427.0,WeatherDisplay:10.37,2013-01-15 18:04:00,
2013-01-15 12:09:00,30.1,18.6,30.37,SSE,150,3.5,3.5,62,0.01,RA,,0.03,540.0,WeatherDisplay:10.37,2013-01-15 18:09:00,
2013-01-15 12:14:00,30.3,18.8,30.37,SSE,150,3.5,3.5,62,0.01,RA,,0.03,501.0,WeatherDisplay:10.37,2013-01-15 18:14:00,
2013-01-15 12:19:00,30.7,18.8,30.37,South,172,3.5,3.5,61,0.01,FEW,,0.03,536.0,WeatherDisplay:10.37,2013-01-15 18:19:00,
2013-01-15 12:24:00,30.9,18.6,30.37,SSE,155,5.8,5.8,60,0.01,FEW,,0.03,499.0,WeatherDisplay:10.37,2013-01-15 18:24:00,
2013-01-15 12:29:00,30.6,18.3,30.37,SSE,164,4.6,4.6,60,0.01,CLR,,0.03,548.0,WeatherDisplay:10.37,2013-01-15 18:29:00,
2013-01-15 12:34:00,30.7,18.4,30.36,South,181,4.6,4.6,60,0.01,CLR,,0.03,547.0,WeatherDisplay:10.37,2013-01-15 18:34:00,
2013-01-15 12:39:00,31.0,18.7,30.36,South,172,6.9,6.9,60,0.01,CLR,,0.03,534.0,WeatherDisplay:10.37,2013-01-15 18:39:00,
2013-01-15 12:44:00,31.0,18.3,30.35,SE,142,10.4,10.4,59,0.01,FEW,,0.03,527.0,WeatherDisplay:10.37,2013-01-15 18:44:00,
2013-01-15 12:49:00,31.1,18.0,30.35,SE,144,5.8,5.8,58,0.01,FEW,,0.03,490.0,WeatherDisplay:10.37,2013-01-15 18:49:00,
2013-01-15 12:54:00,31.1,18.0,30.35,SSE,167,6.9,6.9,58,0.01,FEW,,0.03,515.0,WeatherDisplay:10.37,2013-01-15 18:54:00,
2013-01-15 12:59:00,31.3,17.8,30.35,SSE,167,4.0,4.0,57,0.01,FEW,,0.03,512.0,WeatherDisplay:10.37,2013-01-15 18:59:00,
2013-01-15 13:04:00,31.6,18.1,30.35,SSE,163,3.5,3.5,57,0.01,FEW,,0.03,506.0,WeatherDisplay:10.37,2013-01-15 19:04:00,
2013-01-15 13:09:00,31.6,18.1,30.34,South,175,4.6,4.6,57,0.00,FEW,,0.03,501.0,WeatherDisplay:10.37,2013-01-15 19:09:00,
2013-01-15 13:14:00,31.5,17.6,30.34,South,178,6.9,6.9,56,0.00,FEW,,0.03,497.0,WeatherDisplay:10.37,2013-01-15 19:14:00,
2013-01-15 13:19:00,31.6,17.7,30.34,SSE,148,9.2,9.2,56,0.00,FEW,,0.03,489.0,WeatherDisplay:10.37,2013-01-15 19:19:00,
2013-01-15 13:24:00,31.6,17.7,30.34,South,169,6.9,6.9,56,0.00,FEW,,0.03,480.0,WeatherDisplay:10.37,2013-01-15 19:24:00,
2013-01-15 13:29:00,31.6,18.5,30.34,ESE,117,5.8,5.8,58,0.00,FEW,,0.03,475.0,WeatherDisplay:10.37,2013-01-15 19:29:00,
2013-01-15 13:34:00,31.8,19.1,30.34,SE,146,8.1,8.1,59,0.00,FEW,,0.03,464.0,WeatherDisplay:10.37,2013-01-15 19:34:00,
2013-01-15 13:39:00,31.7,18.2,30.33,SE,136,5.8,5.8,57,0.00,FEW,,0.03,457.0,WeatherDisplay:10.37,2013-01-15 19:39:00,
2013-01-15 13:44:00,31.7,18.2,30.33,SSE,152,10.4,10.4,57,0.00,FEW,,0.03,450.0,WeatherDisplay:10.37,2013-01-15 19:44:00,
2013-01-15 13:49:00,31.7,18.2,30.33,SSE,150,4.6,4.6,57,0.00,FEW,,0.03,443.0,WeatherDisplay:10.37,2013-01-15 19:49:00,
2013-01-15 13:54:00,31.8,18.3,30.33,SSE,152,5.8,5.8,57,0.00,FEW,,0.03,436.0,WeatherDisplay:10.37,2013-01-15 19:54:00,
2013-01-15 13:59:00,31.8,18.3,30.33,South,182,5.8,5.8,57,0.00,FEW,,0.03,425.0,WeatherDisplay:10.37,2013-01-15 19:59:00,
2013-01-15 14:04:00,31.5,17.6,30.33,SSE,163,4.6,4.6,56,0.00,FEW,,0.03,417.0,WeatherDisplay:10.37,2013-01-15 20:04:00,
2013-01-15 14:09:00,31.6,17.7,30.33,SSE,163,4.6,4.6,56,0.00,FEW,,0.03,406.0,WeatherDisplay:10.37,2013-01-15 20:09:00,
2013-01-15 14:14:00,31.7,17.8,30.33,SSE,151,10.4,10.4,56,0.00,FEW,,0.03,394.0,WeatherDisplay:10.37,2013-01-15 20:14:00,
2013-01-15 14:19:00,31.9,18.0,30.33,SSE,150,5.8,5.8,56,0.00,FEW,,0.03,388.0,WeatherDisplay:10.37,2013-01-15 20:19:00,
2013-01-15 14:24:00,31.5,17.6,30.34,South,191,6.9,6.9,56,0.00,FEW,,0.03,373.0,WeatherDisplay:10.37,2013-01-15 20:24:00,
2013-01-15 14:29:00,31.6,18.1,30.34,SSE,157,3.5,0.0,57,0.00,SCT,,0.03,311.0,WeatherDisplay:10.37,2013-01-15 20:29:00,
2013-01-15 14:34:00,31.9,18.8,30.34,SSE,149,3.5,3.5,58,0.00,FEW,,0.03,332.0,WeatherDisplay:10.37,2013-01-15 20:34:00,
2013-01-15 14:39:00,31.6,17.7,30.33,South,179,5.8,5.8,56,0.00,SCT,,0.03,318.0,WeatherDisplay:10.37,2013-01-15 20:39:00,
2013-01-15 14:44:00,31.7,18.6,30.34,SSE,153,3.5,3.5,58,0.00,FEW,,0.03,330.0,WeatherDisplay:10.37,2013-01-15 20:44:00,
2013-01-15 14:49:00,31.7,18.6,30.33,SSW,193,10.4,10.4,58,0.00,FEW,,0.03,311.0,WeatherDisplay:10.37,2013-01-15 20:49:00,
2013-01-15 14:54:00,31.5,18.0,30.34,SE,142,9.2,9.2,57,0.00,FEW,,0.03,297.0,WeatherDisplay:10.37,2013-01-15 20:54:00,
2013-01-15 14:59:00,31.5,18.4,30.33,SE,143,4.6,4.6,58,0.00,FEW,,0.03,295.0,WeatherDisplay:10.37,2013-01-15 20:59:00,
2013-01-15 15:04:00,31.7,18.6,30.33,SSE,156,5.0,5.0,58,0.00,FEW,,0.03,283.0,WeatherDisplay:10.37,2013-01-15 21:04:00,
2013-01-15 15:09:00,31.6,18.1,30.34,SSE,153,5.8,5.8,57,0.00,FEW,,0.03,271.0,WeatherDisplay:10.37,2013-01-15 21:09:00,
2013-01-15 15:14:00,31.6,17.7,30.33,SSE,156,5.0,5.0,56,0.00,FEW,,0.03,255.0,WeatherDisplay:10.37,2013-01-15 21:14:00,
2013-01-15 15:19:00,31.6,17.7,30.34,SE,133,6.9,6.9,56,0.00,FEW,,0.03,244.0,WeatherDisplay:10.37,2013-01-15 21:19:00,
2013-01-15 15:24:00,31.6,17.7,30.34,SSE,155,6.9,6.9,56,0.00,FEW,,0.03,230.0,WeatherDisplay:10.37,2013-01-15 21:24:00,
2013-01-15 15:29:00,31.6,17.7,30.34,SE,140,5.8,5.8,56,0.00,FEW,,0.03,216.0,WeatherDisplay:10.37,2013-01-15 21:29:00,
2013-01-15 15:34:00,31.7,17.8,30.34,SE,142,3.5,3.5,56,0.00,FEW,,0.03,202.0,WeatherDisplay:10.37,2013-01-15 21:34:00,
2013-01-15 15:39:00,31.9,18.0,30.34,SE,143,4.6,4.6,56,0.00,FEW,,0.03,192.0,WeatherDisplay:10.37,2013-01-15 21:39:00,
2013-01-15 15:44:00,31.7,17.8,30.34,South,172,3.5,3.5,56,0.00,SCT,,0.03,178.0,WeatherDisplay:10.37,2013-01-15 21:44:00,
2013-01-15 15:49:00,31.6,18.1,30.33,SE,144,4.6,4.6,57,0.00,SCT,,0.03,165.0,WeatherDisplay:10.37,2013-01-15 21:49:00,
2013-01-15 15:54:00,31.5,18.0,30.34,SE,144,3.5,3.5,57,0.00,SCT,,0.03,153.0,WeatherDisplay:10.37,2013-01-15 21:54:00,
2013-01-15 15:59:00,31.4,17.9,30.33,SE,144,0.0,0.0,57,0.00,SCT,,0.03,127.0,WeatherDisplay:10.37,2013-01-15 21:59:00,
2013-01-15 16:04:00,31.2,18.1,30.33,SE,144,0.0,1.0,58,0.00,BKN,,0.03,69.0,WeatherDisplay:10.37,2013-01-15 22:04:00,
2013-01-15 16:09:00,31.0,17.9,30.33,SE,144,3.5,3.5,58,0.00,BKN,,0.03,62.0,WeatherDisplay:10.37,2013-01-15 22:09:00,
2013-01-15 16:14:00,30.8,17.7,30.33,SE,144,3.5,3.5,58,0.00,OVC,,0.03,54.0,WeatherDisplay:10.37,2013-01-15 22:14:00,
2013-01-15 16:19:00,30.6,18.0,30.33,SE,144,0.0,0.0,59,0.00,OVC,,0.03,44.0,WeatherDisplay:10.37,2013-01-15 22:19:00,
2013-01-15 16:24:00,30.5,18.3,30.33,SE,144,2.3,2.3,60,0.00,BKN,,0.03,44.0,WeatherDisplay:10.37,2013-01-15 22:24:00,
2013-01-15 16:29:00,30.3,18.5,30.33,SE,144,0.0,0.0,61,0.00,BKN,,0.03,42.0,WeatherDisplay:10.37,2013-01-15 22:29:00,
2013-01-15 16:34:00,30.2,18.4,30.33,SE,144,2.3,0.0,61,0.00,BKN,,0.03,30.0,WeatherDisplay:10.37,2013-01-15 22:34:00,
2013-01-15 16:39:00,30.1,18.3,30.33,SE,144,0.0,0.0,61,0.00,BKN,,0.03,25.0,WeatherDisplay:10.37,2013-01-15 22:39:00,
2013-01-15 16:44:00,29.9,18.5,30.33,SE,144,0.0,0.0,62,0.00,BKN,,0.03,16.0,WeatherDisplay:10.37,2013-01-15 22:44:00,
2013-01-15 16:49:00,29.8,18.4,30.33,SE,144,0.0,0.0,62,0.00,SCT,,0.03,11.0,WeatherDisplay:10.37,2013-01-15 22:49:00,
2013-01-15 16:54:00,29.6,18.2,30.33,SE,144,0.0,0.0,62,0.00,OVC,,0.03,7.0,WeatherDisplay:10.37,2013-01-15 22:54:00,
2013-01-15 16:59:00,29.4,18.0,30.33,SE,144,0.0,0.0,62,0.00,OVC,,0.03,5.0,WeatherDisplay:10.37,2013-01-15 22:59:00,
2013-01-15 17:04:00,29.2,17.8,30.33,SE,144,0.0,0.0,62,0.00,CLR,,0.03,0.0,WeatherDisplay:10.37,2013-01-15 23:04:00,
2013-01-15 17:09:00,29.0,17.6,30.32,SE,144,0.0,0.0,62,0.00,CLR,,0.03,0.0,WeatherDisplay:10.37,2013-01-15 23:09:00,
2013-01-15 17:14:00,28.8,17.8,30.32,SE,144,0.0,0.0,63,0.00,CLR,,0.03,0.0,WeatherDisplay:10.37,2013-01-15 23:14:00,
2013-01-15 17:20:00,28.5,17.5,30.32,SE,144,0.0,0.0,63,0.00,CLR,,0.03,0.0,WeatherDisplay:10.37,2013-01-15 23:20:00,
2013-01-15 17:24:00,28.2,17.6,30.32,SE,144,0.0,0.0,64,0.00,CLR,,0.03,0.0,WeatherDisplay:10.37,2013-01-15 23:24:00,
2013-01-15 17:30:00,27.9,17.6,30.31,SE,144,3.0,3.0,65,0.00,CLR,,0.03,0.0,WeatherDisplay:10.37,2013-01-15 23:30:00,
2013-01-15 17:35:00,27.6,17.4,30.31,SE,144,0.0,0.0,65,0.00,CLR,,0.03,0.0,WeatherDisplay:10.37,2013-01-15 23:35:00,
2013-01-15 17:40:00,27.4,17.2,30.31,SE,144,0.0,0.0,65,0.00,CLR,,0.03,0.0,WeatherDisplay:10.37,2013-01-15 23:40:00,
2013-01-15 17:45:00,27.2,17.0,30.31,SE,144,0.0,0.0,65,0.00,CLR,,0.03,0.0,WeatherDisplay:10.37,2013-01-15 23:45:00,
2013-01-15 17:50:00,27.0,16.8,30.31,SE,144,0.0,0.0,65,0.00,CLR,,0.03,0.0,WeatherDisplay:10.37,2013-01-15 23:50:00,
2013-01-15 17:55:00,26.8,16.6,30.31,SE,144,0.0,0.0,65,0.00,CLR,,0.03,0.0,WeatherDisplay:10.37,2013-01-15 23:55:00,
2013-01-15 18:00:00,26.5,16.7,30.30,SE,144,0.0,0.0,66,0.00,CLR,,0.03,0.0,WeatherDisplay:10.37,2013-01-16 00:00:00,
2013-01-15 18:05:00,26.3,16.5,30.31,SE,144,0.0,0.0,66,0.00,CLR,,0.03,0.0,WeatherDisplay:10.37,2013-01-16 00:05:00,
2013-01-15 18:10:00,26.2,16.7,30.30,SE,144,0.0,0.0,67,0.00,CLR,,0.03,0.0,WeatherDisplay:10.37,2013-01-16 00:10:00,
2013-01-15 18:15:00,25.9,16.8,30.29,SE,144,0.0,0.0,68,0.00,CLR,,0.03,0.0,WeatherDisplay:10.37,2013-01-16 00:15:00,
2013-01-15 18:20:00,25.7,16.6,30.29,SE,144,0.0,0.0,68,0.00,CLR,,0.03,0.0,WeatherDisplay:10.37,2013-01-16 00:20:00,
2013-01-15 18:25:00,25.4,16.3,30.29,SE,144,0.0,0.0,68,0.00,CLR,,0.03,0.0,WeatherDisplay:10.37,2013-01-16 00:25:00,
2013-01-15 18:30:00,25.2,16.5,30.29,SE,144,0.0,0.0,69,0.00,CLR,,0.03,0.0,WeatherDisplay:10.37,2013-01-16 00:30:00,
2013-01-15 18:35:00,25.0,16.3,30.29,SE,144,0.0,0.0,69,0.00,CLR,,0.03,0.0,WeatherDisplay:10.37,2013-01-16 00:35:00,
2013-01-15 18:40:00,24.8,16.4,30.29,SE,144,0.0,0.0,70,0.00,CLR,,0.03,0.0,WeatherDisplay:10.37,2013-01-16 00:40:00,
2013-01-15 18:45:00,24.5,15.8,30.28,SE,144,0.0,0.0,69,0.00,CLR,,0.03,0.0,WeatherDisplay:10.37,2013-01-16 00:45:00,
2013-01-15 18:50:00,24.3,15.6,30.28,SE,144,0.0,0.0,69,0.00,CLR,,0.03,0.0,WeatherDisplay:10.37,2013-01-16 00:50:00,
2013-01-15 18:55:00,24.0,15.3,30.28,SE,144,0.0,0.0,69,0.00,CLR,,0.03,0.0,WeatherDisplay:10.37,2013-01-16 00:55:00,
2013-01-15 19:00:00,23.8,15.1,30.28,SE,144,0.0,0.0,69,0.00,CLR,,0.03,0.0,WeatherDisplay:10.37,2013-01-16 01:00:00,
2013-01-15 19:05:00,23.5,14.8,30.28,SE,144,0.0,0.0,69,0.00,CLR,,0.03,0.0,WeatherDisplay:10.37,2013-01-16 01:05:00,
2013-01-15 19:10:00,23.2,14.5,30.28,SE,144,0.0,0.0,69,0.00,CLR,,0.03,0.0,WeatherDisplay:10.37,2013-01-16 01:10:00,
2013-01-15 19:15:00,22.9,14.6,30.27,SE,144,0.0,0.0,70,0.00,CLR,,0.03,0.0,WeatherDisplay:10.37,2013-01-16 01:15:00,
2013-01-15 19:20:00,22.7,14.7,30.27,SE,144,0.0,0.0,71,0.00,CLR,,0.03,0.0,WeatherDisplay:10.37,2013-01-16 01:20:00,
2013-01-15 19:25:00,22.5,14.8,30.27,SE,144,0.0,0.0,72,0.00,CLR,,0.03,0.0,WeatherDisplay:10.37,2013-01-16 01:25:00,
2013-01-15 19:30:00,22.2,14.9,30.27,SE,144,0.0,0.0,73,0.00,CLR,,0.03,0.0,WeatherDisplay:10.37,2013-01-16 01:30:00,
2013-01-15 19:35:00,22.0,15.0,30.26,SE,144,0.0,0.0,74,0.00,CLR,,0.03,0.0,WeatherDisplay:10.37,2013-01-16 01:35:00,
2013-01-15 19:40:00,21.8,14.8,30.26,SE,144,0.0,0.0,74,0.00,CLR,,0.03,0.0,WeatherDisplay:10.37,2013-01-16 01:40:00,
2013-01-15 19:45:00,21.5,14.5,30.26,SE,144,0.0,0.0,74,0.00,CLR,,0.03,0.0,WeatherDisplay:10.37,2013-01-16 01:45:00,
2013-01-15 19:50:00,21.2,14.2,30.26,SE,144,0.0,0.0,74,0.00,CLR,,0.03,0.0,WeatherDisplay:10.37,2013-01-16 01:50:00,
2013-01-15 19:55:00,20.8,13.8,30.26,SE,144,0.0,0.0,74,0.00,CLR,,0.03,0.0,WeatherDisplay:10.37,2013-01-16 01:55:00,
2013-01-15 20:00:00,20.5,13.5,30.25,SE,144,0.0,0.0,74,0.00,CLR,,0.03,0.0,WeatherDisplay:10.37,2013-01-16 02:00:00,
2013-01-15 20:05:00,20.2,13.2,30.25,SE,144,0.0,0.0,74,0.00,CLR,,0.03,0.0,WeatherDisplay:10.37,2013-01-16 02:05:00,
2013-01-15 20:10:00,20.0,13.0,30.25,SE,144,0.0,0.0,74,0.00,CLR,,0.03,0.0,WeatherDisplay:10.37,2013-01-16 02:10:00,
2013-01-15 20:15:00,19.7,12.8,30.25,SE,144,0.0,0.0,74,0.00,CLR,,0.03,0.0,WeatherDisplay:10.37,2013-01-16 02:15:00,
2013-01-15 20:20:00,19.5,12.6,30.25,SE,144,0.0,0.0,74,0.00,CLR,,0.03,0.0,WeatherDisplay:10.37,2013-01-16 02:20:00,
2013-01-15 20:25:00,19.2,12.6,30.24,SE,144,0.0,0.0,75,0.00,CLR,,0.03,0.0,WeatherDisplay:10.37,2013-01-16 02:25:00,
2013-01-15 20:30:00,18.9,12.3,30.24,SE,144,0.0,0.0,75,0.00,CLR,,0.03,0.0,WeatherDisplay:10.37,2013-01-16 02:30:00,
2013-01-15 20:35:00,18.7,12.1,30.24,SE,144,0.0,0.0,75,0.00,CLR,,0.03,0.0,WeatherDisplay:10.37,2013-01-16 02:35:00,
2013-01-15 20:40:00,18.6,12.3,30.24,SE,144,0.0,0.0,76,0.00,CLR,,0.03,0.0,WeatherDisplay:10.37,2013-01-16 02:40:00,
2013-01-15 20:45:00,18.3,12.3,30.23,SE,144,0.0,0.0,77,0.00,CLR,,0.03,0.0,WeatherDisplay:10.37,2013-01-16 02:45:00,
2013-01-15 20:50:00,18.1,12.4,30.23,SE,144,0.0,0.0,78,0.00,CLR,,0.03,0.0,WeatherDisplay:10.37,2013-01-16 02:50:00,
2013-01-15 20:55:00,17.9,12.2,30.23,SE,144,0.0,0.0,78,0.00,CLR,,0.03,0.0,WeatherDisplay:10.37,2013-01-16 02:55:00,
2013-01-15 21:00:00,17.6,12.2,30.23,SE,144,0.0,0.0,79,0.00,CLR,,0.03,0.0,WeatherDisplay:10.37,2013-01-16 03:00:00,
2013-01-15 21:05:00,17.6,12.2,30.22,SE,144,0.0,0.0,79,0.00,CLR,,0.03,0.0,WeatherDisplay:10.37,2013-01-16 03:05:00,
2013-01-15 21:10:00,17.5,12.4,30.23,SE,144,0.0,0.0,80,0.00,CLR,,0.03,0.0,WeatherDisplay:10.37,2013-01-16 03:10:00,
2013-01-15 21:15:00,17.4,12.6,30.22,SE,144,0.0,0.0,81,0.00,CLR,,0.03,0.0,WeatherDisplay:10.37,2013-01-16 03:15:00,
2013-01-15 21:20:00,17.3,12.5,30.22,SE,144,0.0,0.0,81,0.00,CLR,,0.03,0.0,WeatherDisplay:10.37,2013-01-16 03:20:00,
2013-01-15 21:25:00,17.2,12.6,30.22,SE,144,0.0,0.0,82,0.00,CLR,,0.03,0.0,WeatherDisplay:10.37,2013-01-16 03:25:00,
2013-01-15 21:30:00,17.1,12.6,30.22,SE,144,0.0,0.0,82,0.00,CLR,,0.03,0.0,WeatherDisplay:10.37,2013-01-16 03:30:00,
2013-01-15 21:35:00,17.0,12.5,30.22,SE,144,0.0,0.0,82,0.00,CLR,,0.03,0.0,WeatherDisplay:10.37,2013-01-16 03:35:00,
2013-01-15 21:40:00,16.9,12.4,30.22,SE,144,0.0,0.0,82,0.00,CLR,,0.03,0.0,WeatherDisplay:10.37,2013-01-16 03:40:00,
2013-01-15 21:45:00,16.8,12.3,30.22,SE,144,0.0,0.0,82,0.00,CLR,,0.03,0.0,WeatherDisplay:10.37,2013-01-16 03:45:00,
2013-01-15 21:50:00,16.6,12.1,30.21,SE,144,0.0,0.0,82,0.00,CLR,,0.03,0.0,WeatherDisplay:10.37,2013-01-16 03:50:00,
2013-01-15 21:55:00,16.5,12.2,30.21,SE,144,0.0,0.0,83,0.00,CLR,,0.03,0.0,WeatherDisplay:10.37,2013-01-16 03:55:00,
2013-01-15 22:00:00,16.3,12.0,30.20,SE,144,0.0,0.0,83,0.00,CLR,,0.03,0.0,WeatherDisplay:10.37,2013-01-16 04:00:00,
2013-01-15 22:05:00,16.1,11.8,30.20,SE,144,0.0,0.0,83,0.00,CLR,,0.03,0.0,WeatherDisplay:10.37,2013-01-16 04:05:00,
2013-01-15 22:10:00,16.0,11.7,30.20,SE,144,0.0,0.0,83,0.00,CLR,,0.03,0.0,WeatherDisplay:10.37,2013-01-16 04:10:00,
2013-01-15 22:15:00,15.9,11.7,30.20,SE,144,0.0,0.0,83,0.00,CLR,,0.03,0.0,WeatherDisplay:10.37,2013-01-16 04:15:00,
2013-01-15 22:20:00,15.8,11.8,30.20,SE,144,0.0,0.0,84,0.00,CLR,,0.03,0.0,WeatherDisplay:10.37,2013-01-16 04:20:00,
2013-01-15 22:25:00,15.6,11.6,30.19,SE,144,0.0,0.0,84,0.00,CLR,,0.03,0.0,WeatherDisplay:10.37,2013-01-16 04:25:00,
2013-01-15 22:30:00,15.5,11.5,30.20,SE,144,0.0,0.0,84,0.00,CLR,,0.03,0.0,WeatherDisplay:10.37,2013-01-16 04:30:00,
2013-01-15 22:35:00,15.4,11.4,30.19,SE,144,0.0,0.0,84,0.00,CLR,,0.03,0.0,WeatherDisplay:10.37,2013-01-16 04:35:00,
2013-01-15 22:40:00,15.4,11.7,30.19,SE,144,0.0,0.0,85,0.00,CLR,,0.03,0.0,WeatherDisplay:10.37,2013-01-16 04:40:00,
2013-01-15 22:45:00,15.3,11.6,30.19,SE,144,0.0,0.0,85,0.00,CLR,,0.03,0.0,WeatherDisplay:10.37,2013-01-16 04:45:00,
2013-01-15 22:51:00,15.3,11.6,30.19,SE,144,0.0,0.0,85,0.00,CLR,,0.03,0.0,WeatherDisplay:10.37,2013-01-16 04:51:00,
2013-01-15 22:56:00,15.3,11.9,30.19,SE,144,0.0,0.0,86,0.00,CLR,,0.03,0.0,WeatherDisplay:10.37,2013-01-16 04:56:00,
2013-01-15 23:00:00,15.2,11.8,30.18,SE,144,0.0,0.0,86,0.00,CLR,,0.03,0.0,WeatherDisplay:10.37,2013-01-16 05:00:00,
2013-01-15 23:03:00,15.2,11.8,30.18,SE,144,0.0,0.0,86,0.00,CLR,,0.03,0.0,WeatherDisplay:10.37,2013-01-16 05:03:00,
2013-01-15 23:08:00,15.2,11.8,30.19,SE,144,0.0,0.0,86,0.00,CLR,,0.03,0.0,WeatherDisplay:10.37,2013-01-16 05:08:00,
2013-01-15 23:13:00,15.2,11.8,30.19,SE,144,0.0,0.0,86,0.00,CLR,,0.03,0.0,WeatherDisplay:10.37,2013-01-16 05:13:00,
2013-01-15 23:18:00,15.2,11.8,30.18,SE,144,0.0,0.0,86,0.00,CLR,,0.03,0.0,WeatherDisplay:10.37,2013-01-16 05:18:00,
2013-01-15 23:23:00,15.2,11.8,30.18,SE,144,0.0,0.0,86,0.00,CLR,,0.03,0.0,WeatherDisplay:10.37,2013-01-16 05:23:00,
2013-01-15 23:28:00,15.2,12.0,30.18,SE,144,0.0,0.0,87,0.00,CLR,,0.03,0.0,WeatherDisplay:10.37,2013-01-16 05:28:00,
2013-01-15 23:33:00,15.1,11.9,30.18,SE,144,0.0,0.0,87,0.00,CLR,,0.03,0.0,WeatherDisplay:10.37,2013-01-16 05:33:00,
2013-01-15 23:38:00,15.0,11.8,30.18,SE,144,0.0,0.0,87,0.00,CLR,,0.03,0.0,WeatherDisplay:10.37,2013-01-16 05:38:00,
2013-01-15 23:43:00,15.0,11.8,30.18,SE,144,0.0,0.0,87,0.00,CLR,,0.03,0.0,WeatherDisplay:10.37,2013-01-16 05:43:00,
2013-01-15 23:48:00,14.9,11.7,30.18,SE,144,0.0,0.0,87,0.00,CLR,,0.03,0.0,WeatherDisplay:10.37,2013-01-16 05:48:00,
2013-01-15 23:53:00,14.9,11.7,30.18,SE,144,0.0,0.0,87,0.00,CLR,,0.03,0.0,WeatherDisplay:10.37,2013-01-16 05:53:00,
2013-01-15 23:59:00,14.8,11.6,30.18,SE,144,0.0,0.0,87,0.00,CLR,,0.03,0.0,WeatherDisplay:10.37,2013-01-16 05:59:00,